PBO Station Position Time Series. Reference Frame : NAM14
Format Version,1.1.0
4-character ID,AL90
Station name,ALDOT_9_DIV_OFF
Begin Date, 2007-02-10
End Date, 2019-10-07
Release Date, 2019-10-08
Reference position, 30.6908305232 North Latitude, -88.0317117359 East Longitude, -17.39231 meters elevation,
Date, North (mm), East (mm), Vertical (mm), North Std. Deviation (mm), East Std. Deviation (mm),              Vertical Std. Deviation (mm), Quality,
2007-02-10,0.00, 0.00, 0.00, 1.96, 1.89, 8.92, repro,
2007-02-11,1.12, 0.02, 4.44, 1.96, 1.88, 8.71, repro,
2007-02-12,0.37, 0.04, 3.10, 1.93, 1.79, 8.71, repro,
2007-02-13,1.47, 1.44, 3.61, 2.06, 1.95, 9.22, repro,
2007-02-14,-0.67, -1.54, 3.10, 1.91, 1.78, 8.39, repro,
2007-02-15,0.94, -0.92, 5.41, 1.96, 1.87, 8.61, repro,
2007-02-16,2.20, -0.66, 3.81, 1.99, 1.89, 8.58, repro,
2007-02-17,1.51, -0.29, 6.27, 2.06, 1.99, 9.13, repro,
2007-02-18,1.69, -1.36, 4.24, 1.97, 1.84, 8.63, repro,
2007-02-19,2.24, -0.58, 5.64, 1.96, 1.81, 8.54, repro,
2007-02-20,0.69, -0.87, 6.83, 1.91, 1.77, 8.44, repro,
2007-02-21,0.91, -0.01, 20.45, 1.85, 1.70, 8.04, repro,
2007-02-22,-1.09, 0.14, 5.38, 1.81, 1.66, 7.83, repro,
2007-02-23,0.30, -0.07, 5.15, 1.86, 1.70, 7.99, repro,
2007-02-24,-1.85, 1.54, 9.59, 1.87, 1.70, 8.04, repro,
2007-02-25,-1.15, -0.60, 18.48, 2.03, 1.86, 8.53, repro,
2007-02-26,-1.05, 1.18, 9.70, 1.89, 1.75, 8.18, repro,
2007-02-27,-0.91, -0.28, 8.10, 1.90, 1.77, 8.25, repro,
2007-02-28,-0.33, 1.00, 8.86, 1.86, 1.71, 8.16, repro,
2007-03-01,-0.85, 0.68, 8.05, 2.26, 2.27, 9.76, repro,
2007-03-02,-1.65, 1.55, 18.05, 1.90, 1.74, 8.06, repro,
2007-03-03,-0.51, 0.88, 3.17, 1.87, 1.72, 7.91, repro,
2007-03-04,0.71, 1.30, -0.20, 1.84, 1.71, 7.87, repro,
2007-03-05,1.24, 0.48, -0.68, 1.87, 1.73, 7.88, repro,
2007-03-06,1.31, 1.85, 0.11, 1.89, 1.73, 8.06, repro,
2007-03-07,0.18, 0.70, -0.80, 1.86, 1.69, 7.94, repro,
2007-03-08,0.98, 0.85, 8.43, 1.90, 1.78, 8.15, repro,
2007-03-09,0.73, 2.47, 7.40, 1.88, 1.74, 8.10, repro,
2007-03-10,1.02, 1.74, 0.64, 1.90, 1.80, 8.19, repro,
2007-03-11,-0.70, 1.90, 1.30, 1.88, 1.73, 8.01, repro,
2007-03-12,1.04, 1.81, 6.58, 1.94, 1.77, 8.18, repro,
2007-03-13,-0.09, 0.80, 3.81, 1.92, 1.74, 8.09, repro,
2007-03-14,0.27, 2.40, 1.26, 1.88, 1.75, 8.16, repro,
2007-03-15,-4.03, 2.13, 16.67, 1.83, 1.71, 7.97, repro,
2007-03-16,-1.74, 1.99, 5.22, 1.86, 1.73, 8.14, repro,
2007-03-17,-0.03, 1.23, 4.31, 1.79, 1.65, 7.79, repro,
2007-03-18,1.41, 1.50, 5.42, 1.88, 1.72, 8.02, repro,
2007-03-19,-0.32, 1.36, 5.67, 1.83, 1.74, 7.98, repro,
2007-03-20,1.36, -0.03, -9.02, 1.85, 1.75, 8.10, repro,
2007-03-21,2.37, 0.69, 5.75, 2.05, 1.92, 8.70, repro,
2007-03-22,2.15, 1.80, 4.22, 1.92, 1.77, 8.34, repro,
2007-03-23,-0.32, 1.69, 9.05, 1.83, 1.68, 7.90, repro,
2007-03-24,0.37, 1.27, 10.08, 1.84, 1.72, 8.06, repro,
2007-03-25,-0.23, 1.61, 9.67, 1.79, 1.67, 7.82, repro,
2007-03-26,-0.11, 2.55, 12.41, 1.83, 1.71, 7.99, repro,
2007-03-27,-1.91, 2.85, 12.72, 1.94, 1.81, 8.17, repro,
2007-03-28,-0.44, 3.87, 9.98, 1.91, 1.73, 8.28, repro,
2007-03-29,0.21, 2.41, 9.30, 1.88, 1.72, 8.07, repro,
2007-03-30,-2.10, 2.88, 1.20, 1.87, 1.75, 8.20, repro,
2007-03-31,-1.10, 3.70, 7.18, 1.86, 1.69, 8.25, repro,
2007-04-01,-2.38, 4.03, 13.64, 1.86, 1.72, 8.23, repro,
2007-04-02,-0.92, 0.11, 15.82, 1.94, 1.71, 8.68, repro,
2007-04-03,-1.75, 3.11, 17.16, 1.89, 1.74, 8.30, repro,
2007-04-04,-2.76, 3.68, 0.95, 1.94, 1.81, 8.62, repro,
2007-04-05,-0.36, 1.29, 2.58, 2.21, 1.94, 9.29, repro,
2007-04-06,-0.29, 2.41, 1.61, 2.31, 1.97, 9.49, repro,
2007-04-07,-0.52, 1.29, 5.74, 2.04, 1.84, 8.91, repro,
2007-04-08,-0.07, -0.18, 12.39, 1.95, 1.90, 8.49, repro,
2007-04-09,-1.70, 0.58, 13.55, 1.90, 1.82, 8.41, repro,
2007-04-10,0.79, 0.81, 15.50, 2.03, 1.94, 9.22, repro,
2007-04-11,-0.66, 1.64, 29.28, 1.94, 1.78, 8.54, repro,
2007-04-12,-0.25, 1.99, 18.31, 1.97, 1.85, 8.60, repro,
2007-04-13,-0.49, 2.06, 9.47, 2.14, 2.01, 9.18, repro,
2007-04-14,-1.30, 0.43, 19.80, 2.16, 1.98, 9.29, repro,
2007-04-15,-1.01, 2.14, 13.07, 1.93, 1.86, 8.40, repro,
2007-04-16,-0.43, 1.40, 10.02, 1.94, 1.85, 8.56, repro,
2007-04-17,-0.47, 1.86, 10.82, 1.91, 1.76, 8.48, repro,
2007-04-18,-2.23, 1.50, 21.40, 1.85, 1.71, 8.14, repro,
2007-04-19,-1.66, 2.99, 21.00, 1.80, 1.68, 7.82, repro,
2007-04-20,-1.51, 2.69, 11.56, 1.80, 1.66, 7.81, repro,
2007-04-21,-1.58, 1.75, 12.71, 1.84, 1.67, 8.03, repro,
2007-04-22,0.31, 2.58, 8.37, 1.87, 1.72, 8.17, repro,
2007-04-23,-0.63, 2.73, 3.08, 1.85, 1.73, 8.05, repro,
2007-04-24,-1.30, 2.25, 8.19, 1.82, 1.71, 7.93, repro,
2007-04-25,-2.17, 4.09, 9.07, 1.83, 1.70, 7.98, repro,
2007-04-26,-2.42, 5.16, 21.73, 2.03, 1.95, 9.08, repro,
2007-04-27,-2.21, 4.19, 10.96, 1.99, 1.91, 8.87, repro,
2007-04-28,-2.05, 4.06, 13.07, 2.02, 1.90, 8.90, repro,
2007-04-29,-2.39, 2.44, 7.19, 1.93, 1.83, 8.37, repro,
2007-04-30,-1.44, 3.63, 13.66, 1.88, 1.81, 8.27, repro,
2007-05-01,-2.46, 2.51, 12.41, 1.82, 1.72, 8.05, repro,
2007-05-02,-2.76, 4.57, 6.43, 2.00, 1.91, 8.68, repro,
2007-05-03,-3.30, 4.44, 16.57, 2.03, 2.00, 8.87, repro,
2007-05-04,-0.92, 4.08, 19.39, 1.96, 1.86, 8.59, repro,
2007-05-05,-1.84, 2.55, 16.03, 1.84, 1.72, 7.94, repro,
2007-05-06,-2.73, 4.03, 20.53, 1.82, 1.69, 7.94, repro,
2007-05-07,-1.69, 2.92, 9.17, 1.85, 1.73, 7.99, repro,
2007-05-08,-1.33, 3.67, 8.88, 1.83, 1.72, 8.00, repro,
2007-05-09,-1.81, 2.46, 17.76, 1.84, 1.72, 8.12, repro,
2007-05-10,-2.84, 4.37, 11.50, 1.89, 1.79, 8.68, repro,
2007-05-11,-3.83, 1.99, 17.00, 2.07, 2.01, 9.37, repro,
2007-05-12,-2.61, 2.23, 9.70, 1.88, 1.80, 8.13, repro,
2007-05-13,-3.73, 3.64, 34.23, 2.18, 2.19, 9.94, repro,
2007-05-14,-1.16, 4.31, 2.47, 1.81, 1.70, 7.99, repro,
2007-05-15,-1.27, 1.52, 15.12, 1.88, 1.81, 8.34, repro,
2007-05-16,-3.29, 5.53, 17.04, 1.87, 1.76, 8.15, repro,
2007-05-17,-3.20, 3.84, 16.25, 1.86, 1.78, 8.01, repro,
2007-05-18,-1.89, 3.93, 12.01, 1.90, 1.80, 8.51, repro,
2007-05-19,-1.80, 2.75, 12.37, 1.91, 1.84, 8.38, repro,
2007-05-20,-1.03, 2.41, 12.80, 1.92, 1.83, 8.35, repro,
2007-05-21,-2.66, 4.15, 12.57, 1.82, 1.72, 7.85, repro,
2007-05-22,-1.74, 4.09, 12.71, 1.81, 1.72, 8.10, repro,
2007-05-23,-1.23, 3.58, 8.75, 1.79, 1.69, 7.86, repro,
2007-05-24,-2.57, 3.62, 16.89, 1.89, 1.80, 8.38, repro,
2007-05-25,-2.08, 3.12, 12.26, 1.88, 1.76, 8.08, repro,
2007-05-26,-3.10, 2.95, 12.49, 1.88, 1.77, 8.25, repro,
2007-05-27,-2.65, 2.88, 9.62, 1.80, 1.71, 7.93, repro,
2007-05-28,-0.32, 4.19, 16.51, 1.88, 1.79, 8.19, repro,
2007-05-29,-1.69, 4.56, 12.89, 1.90, 1.76, 8.12, repro,
2007-05-30,-1.56, 3.06, 24.72, 1.94, 1.84, 8.57, repro,
2007-05-31,-1.49, 2.09, 14.30, 2.01, 1.91, 8.75, repro,
2007-06-01,-3.67, 2.57, 0.43, 1.98, 1.94, 8.76, repro,
2007-06-02,-2.58, 5.39, 7.64, 1.90, 1.81, 8.11, repro,
2007-06-03,-3.54, 3.95, 21.63, 1.85, 1.72, 8.00, repro,
2007-06-04,-4.03, 3.16, 13.18, 1.87, 1.70, 8.15, repro,
2007-06-05,-1.16, 4.11, 11.60, 1.91, 1.81, 8.32, repro,
2007-06-06,-4.00, 4.29, 20.21, 1.96, 1.83, 8.40, repro,
2007-06-07,-0.81, 3.10, 16.36, 2.06, 2.02, 8.90, repro,
2007-06-08,-1.15, 2.68, 10.91, 2.09, 2.03, 8.97, repro,
2007-06-09,-5.49, 5.77, 6.55, 2.08, 2.19, 9.22, repro,
2007-06-10,-0.54, 8.63, 12.71, 1.93, 1.81, 8.20, repro,
2007-06-11,-4.05, 4.77, 13.78, 1.90, 1.76, 8.22, repro,
2007-06-12,-4.52, 3.66, 9.19, 1.98, 1.82, 8.66, repro,
2007-06-13,-2.15, 4.49, 15.35, 1.93, 1.85, 8.39, repro,
2007-06-14,-2.44, 4.76, 9.18, 2.13, 2.27, 10.03, repro,
2007-06-15,-3.24, 5.08, 8.77, 1.96, 1.90, 8.55, repro,
2007-06-16,-0.38, 4.10, 7.17, 1.97, 1.92, 8.56, repro,
2007-06-17,-4.06, 2.81, 9.18, 1.97, 1.90, 8.42, repro,
2007-06-18,-4.87, 3.95, 5.61, 2.17, 2.14, 9.55, repro,
2007-06-19,-5.68, 1.21, 15.68, 1.97, 1.85, 8.52, repro,
2007-06-20,-2.55, 3.03, 12.15, 1.88, 1.74, 8.10, repro,
2007-06-21,-2.69, 3.36, 9.74, 1.87, 1.78, 8.00, repro,
2007-06-22,-2.23, 7.17, 6.62, 1.90, 1.80, 8.30, repro,
2007-06-23,-3.77, 4.94, 2.17, 2.07, 1.95, 8.98, repro,
2007-06-24,-2.07, 4.72, -1.20, 2.03, 1.90, 8.56, repro,
2007-06-25,-5.80, 4.56, 11.90, 2.02, 1.88, 8.48, repro,
2007-06-26,-2.91, 5.18, 12.51, 1.88, 1.78, 8.08, repro,
2007-06-27,-2.71, 3.11, 16.59, 1.95, 1.79, 8.59, repro,
2007-06-28,-5.13, 4.14, 9.59, 1.83, 1.75, 7.89, repro,
2007-06-29,-4.40, 3.41, 6.08, 1.86, 1.78, 7.98, repro,
2007-06-30,-3.48, 5.61, 17.78, 2.06, 1.92, 8.84, repro,
2007-07-01,-4.43, 4.38, 9.22, 2.12, 2.02, 9.12, repro,
2007-07-02,-3.70, 5.59, 24.76, 2.02, 2.02, 8.69, repro,
2007-07-03,-1.84, 4.94, 14.57, 2.10, 2.05, 8.98, repro,
2007-07-04,-2.65, 2.88, 20.79, 2.17, 2.15, 9.79, repro,
2007-07-05,-0.06, 3.59, 13.80, 1.85, 1.75, 7.93, repro,
2007-07-06,-2.05, 3.56, 11.13, 1.95, 1.79, 8.42, repro,
2007-07-07,-3.13, 1.04, 25.37, 2.24, 2.14, 9.86, repro,
2007-07-08,-1.92, 1.09, 29.22, 2.11, 1.96, 8.96, repro,
2007-07-09,-5.31, 4.98, 11.97, 1.92, 1.82, 8.10, repro,
2007-07-10,-3.65, 3.79, 23.51, 1.94, 1.89, 8.39, repro,
2007-07-11,-5.21, 4.53, 21.64, 2.04, 1.82, 8.60, repro,
2007-07-12,-2.95, 3.96, 22.03, 1.86, 1.74, 8.29, repro,
2007-07-13,-5.00, 3.80, 5.16, 1.91, 1.77, 8.01, repro,
2007-07-14,-5.39, 4.26, 23.43, 1.95, 1.80, 8.38, repro,
2007-07-15,0.27, 4.71, 13.38, 1.92, 1.77, 8.29, repro,
2007-07-16,-4.14, 2.79, 13.37, 1.99, 1.86, 8.42, repro,
2007-07-17,-3.13, 5.03, 12.95, 2.08, 2.03, 8.76, repro,
2007-07-18,-5.01, 4.37, 3.41, 2.01, 1.90, 8.52, repro,
2007-07-19,-2.29, 2.53, 21.12, 1.97, 1.89, 8.32, repro,
2007-07-20,-2.07, 4.42, 14.65, 1.92, 1.77, 8.30, repro,
2007-07-21,-2.47, 4.15, 12.61, 2.00, 1.81, 8.60, repro,
2007-07-22,-1.67, 2.85, 6.10, 1.86, 1.70, 7.98, repro,
2007-07-23,-5.89, 4.15, 19.95, 1.91, 1.79, 8.31, repro,
2007-07-24,-1.76, 4.08, 6.55, 2.10, 1.98, 9.02, repro,
2007-07-25,-4.92, 7.22, 19.19, 2.21, 2.07, 9.50, repro,
2007-07-26,-3.07, 4.22, 13.38, 2.11, 2.05, 9.16, repro,
2007-07-27,-2.90, 4.97, 12.69, 1.98, 1.88, 8.39, repro,
2007-07-28,-4.50, 4.36, 18.66, 2.05, 1.93, 8.91, repro,
2007-07-29,-2.08, 4.07, 21.95, 1.89, 1.73, 8.12, repro,
2007-07-30,-4.73, 6.30, 15.22, 2.06, 1.81, 8.65, repro,
2007-07-31,0.18, 3.78, 23.28, 2.50, 2.11, 10.25, repro,
2007-08-01,-0.71, 1.47, 23.61, 2.16, 2.16, 9.54, repro,
2007-08-02,-3.08, 4.51, 18.73, 1.93, 1.83, 8.34, repro,
2007-08-03,-3.67, 3.78, 15.36, 1.99, 1.89, 8.49, repro,
2007-08-04,-3.96, 4.13, 8.13, 1.95, 1.87, 8.27, repro,
2007-08-05,-3.44, 2.47, 22.04, 1.91, 1.81, 8.20, repro,
2007-08-06,-3.71, 5.06, 26.02, 1.87, 1.79, 7.96, repro,
2007-08-07,-4.43, 4.74, 17.86, 2.20, 1.86, 9.01, repro,
2007-08-08,-5.05, 3.79, 24.69, 1.95, 1.86, 8.31, repro,
2007-08-09,-3.47, 5.13, 17.82, 2.02, 1.91, 8.72, repro,
2007-08-10,-3.96, 4.25, 11.91, 2.02, 1.97, 8.55, repro,
2007-08-11,-2.13, 3.33, 6.47, 1.97, 1.87, 8.55, repro,
2007-08-12,-5.39, 2.69, 18.39, 2.53, 2.13, 10.59, repro,
2007-08-13,-2.71, 7.19, 21.08, 2.03, 1.87, 8.61, repro,
2007-08-14,-4.28, 5.48, 18.07, 2.65, 2.07, 10.79, repro,
2007-08-15,-4.69, 4.61, 14.64, 2.00, 1.82, 8.54, repro,
2007-08-16,-5.33, 3.64, 20.23, 1.96, 1.83, 8.16, repro,
2007-08-17,-7.75, 4.45, 16.50, 1.97, 1.87, 8.12, repro,
2007-08-18,-5.83, 4.68, 19.08, 2.74, 2.66, 11.29, repro,
2007-08-19,-3.97, 7.06, 18.87, 2.01, 1.90, 8.46, repro,
2007-08-20,-5.62, 5.99, 27.88, 2.07, 1.97, 8.82, repro,
2007-08-21,-5.12, 6.45, 15.11, 1.91, 1.79, 8.01, repro,
2007-08-22,-4.83, 4.43, 17.02, 1.88, 1.77, 7.85, repro,
2007-08-23,-4.51, 6.70, 18.03, 1.85, 1.76, 7.77, repro,
2007-08-24,-5.75, 4.43, 15.87, 2.08, 1.85, 8.83, repro,
2007-08-25,-7.09, 7.12, 15.43, 2.01, 1.83, 8.66, repro,
2007-08-26,-7.07, 3.87, 25.10, 1.99, 1.86, 8.40, repro,
2007-08-27,-4.44, 3.69, 16.57, 1.94, 1.80, 8.34, repro,
2007-08-28,-2.00, 6.96, 19.34, 1.97, 1.81, 8.48, repro,
2007-08-29,-6.89, 3.84, 17.27, 2.00, 1.82, 8.59, repro,
2007-08-30,-6.39, 5.40, 26.52, 2.28, 2.01, 9.58, repro,
2007-08-31,-2.96, 5.47, 22.36, 1.88, 1.72, 8.06, repro,
2007-09-01,-3.16, 4.51, 20.07, 2.16, 1.97, 8.91, repro,
2007-09-02,-0.50, 3.53, 23.14, 2.01, 1.89, 8.61, repro,
2007-09-03,-3.71, 3.95, 28.91, 2.21, 2.07, 9.64, repro,
2007-09-04,-2.70, 6.20, 20.25, 1.93, 1.78, 8.24, repro,
2007-09-05,-3.48, 4.25, 28.49, 1.91, 1.76, 8.13, repro,
2007-09-06,-3.54, 4.41, 25.61, 1.97, 1.81, 8.38, repro,
2007-09-07,-6.75, 4.74, 20.26, 1.93, 1.78, 8.38, repro,
2007-09-08,-3.21, 7.18, 3.92, 1.97, 1.81, 8.24, repro,
2007-09-09,-5.53, 8.68, 8.19, 1.93, 1.82, 8.23, repro,
2007-09-10,-6.33, 4.28, 14.76, 2.70, 2.75, 10.73, repro,
2007-09-11,-4.46, 2.45, 28.57, 2.08, 1.86, 8.90, repro,
2007-09-12,-1.90, 4.93, 26.44, 2.00, 1.82, 8.46, repro,
2007-09-13,-0.71, 3.49, 25.90, 2.11, 1.88, 8.85, repro,
2007-09-14,-2.80, 7.04, 33.26, 2.01, 1.83, 8.67, repro,
2007-09-15,-4.00, 5.67, 22.42, 2.02, 1.88, 8.41, repro,
2007-09-16,-5.49, 6.42, 24.39, 2.00, 1.79, 8.28, repro,
2007-09-17,-4.89, 5.55, 22.49, 1.96, 1.80, 8.33, repro,
2007-09-18,-3.56, 4.94, 11.13, 1.92, 1.79, 8.14, repro,
2007-09-19,-4.45, 5.77, 11.06, 1.83, 1.72, 7.71, repro,
2007-09-20,-4.19, 4.98, 19.45, 2.12, 1.86, 8.78, repro,
2007-09-21,-4.93, 8.24, 17.31, 1.95, 1.84, 8.30, repro,
2007-09-23,-1.40, 2.41, 9.55, 1.97, 1.88, 8.34, repro,
2007-09-24,-3.45, 3.45, 12.99, 1.94, 1.79, 8.19, repro,
2007-09-25,-3.53, 4.46, 8.94, 1.83, 1.74, 7.76, repro,
2007-09-26,-4.23, 5.20, 23.27, 1.88, 1.76, 7.86, repro,
2007-09-27,-6.97, 8.77, 12.71, 2.91, 2.47, 12.07, repro,
2007-09-28,-3.10, 7.51, 15.57, 5.46, 6.43, 21.56, repro,
2007-09-30,-3.69, 6.24, 17.15, 2.01, 1.82, 8.31, repro,
2007-10-01,-5.25, 4.30, 19.16, 3.47, 3.99, 15.61, repro,
2007-10-02,-2.62, 4.53, 14.41, 1.91, 1.85, 7.99, repro,
2007-10-03,-2.70, 4.86, 13.80, 1.95, 1.87, 8.06, repro,
2007-10-04,-5.19, 3.61, 9.39, 1.88, 1.75, 7.99, repro,
2007-10-05,-4.81, 6.65, 19.46, 2.02, 1.89, 8.27, repro,
2007-10-06,-4.72, 5.77, 26.83, 1.91, 1.80, 7.98, repro,
2007-10-07,-5.13, 5.87, 3.48, 1.90, 1.78, 7.88, repro,
2007-10-08,-4.15, 4.67, 9.49, 2.04, 1.92, 8.29, repro,
2007-10-09,-5.43, 3.50, 5.93, 2.17, 1.92, 9.11, repro,
2007-10-10,-4.59, 3.93, 9.56, 2.05, 1.95, 8.74, repro,
2007-10-11,-4.46, 4.29, 16.78, 1.95, 1.81, 8.23, repro,
2007-10-12,-2.18, 4.27, 16.81, 1.97, 1.80, 8.21, repro,
2007-10-13,-3.14, 3.65, 13.50, 1.81, 1.71, 7.60, repro,
2007-10-14,-4.12, 2.54, 15.09, 1.82, 1.73, 7.73, repro,
2007-10-15,-2.69, 3.11, 7.65, 1.81, 1.73, 7.70, repro,
2007-10-16,-6.08, 3.97, 12.66, 1.82, 1.76, 7.95, repro,
2007-10-17,-3.37, 2.87, 7.46, 1.85, 1.75, 7.83, repro,
2007-10-18,-2.13, 2.13, 12.15, 2.00, 1.93, 8.69, repro,
2007-10-19,-0.53, 4.51, 25.63, 1.87, 1.77, 8.04, repro,
2007-10-20,-3.56, 4.39, 18.31, 1.83, 1.77, 7.67, repro,
2007-10-21,-3.34, 4.15, 13.10, 1.87, 1.77, 7.88, repro,
2007-10-22,-1.88, 4.25, 19.93, 1.82, 1.72, 7.85, repro,
2007-10-23,-3.33, 2.72, 4.89, 1.98, 1.98, 8.42, repro,
2007-10-24,-1.42, 1.59, 4.04, 1.91, 1.84, 7.85, repro,
2007-10-25,-2.54, 2.15, 8.94, 1.81, 1.72, 7.69, repro,
2007-10-26,-1.14, 1.67, 11.45, 1.86, 1.72, 7.96, repro,
2007-10-27,-2.00, 3.11, 9.12, 1.84, 1.78, 7.80, repro,
2007-10-28,-1.88, 2.96, 1.96, 1.80, 1.70, 7.63, repro,
2007-10-29,-1.43, 2.06, 6.07, 1.81, 1.70, 7.62, repro,
2007-10-30,-1.83, 2.25, 5.21, 1.81, 1.71, 7.65, repro,
2007-10-31,-1.05, 4.07, 7.12, 1.81, 1.71, 7.65, repro,
2007-11-01,-3.22, 3.50, 6.90, 1.76, 1.69, 7.59, repro,
2007-11-02,-2.96, 2.11, 10.61, 1.75, 1.68, 7.53, repro,
2007-11-03,-1.77, 3.32, 3.43, 1.77, 1.69, 7.56, repro,
2007-11-04,-1.76, 2.43, 10.89, 1.75, 1.68, 7.49, repro,
2007-11-05,-2.72, 2.85, 4.71, 1.79, 1.71, 7.61, repro,
2007-11-06,-3.13, 2.51, 8.23, 1.82, 1.71, 7.91, repro,
2007-11-07,-0.96, 3.21, 2.34, 1.78, 1.73, 7.68, repro,
2007-11-08,-1.61, 2.05, 5.16, 1.80, 1.72, 7.58, repro,
2007-11-09,-1.84, 1.22, 10.06, 1.82, 1.74, 7.62, repro,
2007-11-10,-2.45, 1.56, 12.96, 1.82, 1.76, 7.81, repro,
2007-11-11,-1.17, 2.23, 11.50, 1.77, 1.69, 7.57, repro,
2007-11-12,-2.28, 2.21, 7.77, 1.80, 1.74, 7.74, repro,
2007-11-13,-2.27, 1.47, 8.96, 1.75, 1.70, 7.53, repro,
2007-11-14,-0.59, 2.66, 15.68, 1.79, 1.73, 7.68, repro,
2007-11-15,-1.06, 2.25, 19.45, 1.83, 1.78, 7.93, repro,
2007-11-16,-1.93, 2.96, 15.81, 1.77, 1.70, 7.60, repro,
2007-11-17,-0.37, 1.95, 10.80, 1.77, 1.70, 7.61, repro,
2007-11-18,-2.01, 1.81, 16.17, 1.75, 1.69, 7.53, repro,
2007-11-19,-1.58, 1.79, 17.94, 1.76, 1.69, 7.54, repro,
2007-11-20,-1.61, 3.20, 10.15, 1.79, 1.75, 7.75, repro,
2007-11-21,-0.92, 3.90, 13.85, 1.82, 1.77, 7.89, repro,
2007-11-22,-3.06, 4.58, 10.10, 1.83, 1.77, 7.91, repro,
2007-11-23,-1.78, 3.29, 9.52, 1.93, 1.79, 8.43, repro,
2007-11-24,-2.39, 1.83, 17.03, 1.85, 1.77, 7.99, repro,
2007-11-25,-2.09, 0.94, 13.52, 1.82, 1.76, 7.81, repro,
2007-11-26,-1.65, 1.61, 20.53, 1.85, 1.80, 8.09, repro,
2007-11-27,-1.15, 1.29, 9.60, 1.89, 1.78, 8.19, repro,
2007-11-28,-2.03, 1.80, 8.67, 1.80, 1.76, 7.76, repro,
2007-11-29,-1.24, 3.54, 19.99, 1.84, 1.81, 7.93, repro,
2007-11-30,-1.12, 2.06, 9.16, 1.82, 1.80, 7.83, repro,
2007-12-01,-1.11, 3.31, 11.48, 1.84, 1.78, 8.02, repro,
2007-12-02,-3.16, 4.54, 6.32, 1.80, 1.75, 7.76, repro,
2007-12-03,0.28, 2.82, -0.62, 1.80, 1.77, 7.89, repro,
2007-12-04,-1.79, 2.81, 13.81, 1.84, 1.77, 8.00, repro,
2007-12-05,-1.75, 2.34, 20.59, 1.84, 1.76, 7.95, repro,
2007-12-06,-1.17, 1.64, 15.79, 1.80, 1.75, 7.80, repro,
2007-12-07,-2.90, 2.91, 18.87, 1.84, 1.78, 8.04, repro,
2007-12-08,-0.90, 5.34, 4.13, 1.80, 1.76, 7.83, repro,
2007-12-09,-1.92, 1.92, 1.47, 1.80, 1.76, 7.84, repro,
2007-12-10,-1.76, 3.48, 5.48, 1.79, 1.75, 7.72, repro,
2007-12-11,-2.21, 2.73, 10.99, 1.79, 1.74, 7.71, repro,
2007-12-12,-1.61, 3.12, 5.19, 1.83, 1.78, 7.85, repro,
2007-12-13,-1.98, 4.40, 8.68, 1.85, 1.80, 7.98, repro,
2007-12-14,-3.13, 2.93, 10.86, 1.80, 1.76, 7.79, repro,
2007-12-15,-2.61, 1.40, 13.94, 2.06, 2.23, 9.02, repro,
2007-12-16,-2.34, 2.44, 6.97, 1.84, 1.78, 7.81, repro,
2007-12-17,-0.54, 1.90, 11.12, 1.82, 1.76, 7.76, repro,
2007-12-18,-0.87, 1.73, 2.16, 1.79, 1.74, 7.69, repro,
2007-12-19,-0.74, 3.02, 19.04, 1.82, 1.79, 7.87, repro,
2007-12-20,-1.22, 1.68, 21.21, 1.84, 1.79, 7.93, repro,
2007-12-21,-1.21, 2.11, 15.76, 1.81, 1.73, 7.65, repro,
2007-12-22,-0.89, 2.35, 15.28, 1.81, 1.72, 7.66, repro,
2007-12-23,-0.51, 3.27, 12.23, 1.83, 1.75, 7.81, repro,
2007-12-24,-0.32, 1.13, 11.12, 1.83, 1.77, 7.85, repro,
2007-12-25,-2.28, 1.40, 21.88, 1.84, 1.79, 7.96, repro,
2007-12-26,-1.01, 1.40, 15.53, 1.80, 1.72, 7.67, repro,
2007-12-27,-1.21, 1.96, 9.45, 1.85, 1.81, 7.82, repro,
2007-12-28,-0.67, 2.44, 13.32, 1.92, 1.94, 8.12, repro,
2007-12-29,-2.86, 2.90, 15.81, 1.83, 1.81, 7.84, repro,
2007-12-30,-0.16, 1.86, 29.01, 1.86, 1.84, 8.06, repro,
2007-12-31,-0.14, 0.66, 16.72, 1.79, 1.74, 7.69, repro,
2008-01-01,0.26, 0.90, 1.56, 1.80, 1.73, 7.70, repro,
2008-01-02,-0.51, -0.12, -2.68, 1.78, 1.71, 7.54, repro,
2008-01-03,1.92, -0.31, -4.81, 1.82, 1.73, 7.64, repro,
2008-01-04,0.30, 0.39, -2.07, 1.75, 1.71, 7.39, repro,
2008-01-05,0.22, -0.67, 4.79, 1.75, 1.72, 7.45, repro,
2008-01-06,1.72, 1.47, 5.87, 1.76, 1.73, 7.48, repro,
2008-01-07,-0.01, 1.89, 8.92, 1.76, 1.71, 7.44, repro,
2008-01-08,0.06, 1.37, 5.40, 1.79, 1.75, 7.50, repro,
2008-01-09,-0.06, 0.01, 12.38, 1.79, 1.77, 7.55, repro,
2008-01-10,-0.92, 2.56, 18.68, 1.77, 1.74, 7.60, repro,
2008-01-11,-0.83, 0.88, 19.21, 1.82, 1.78, 7.88, repro,
2008-01-12,-0.60, 1.07, 3.76, 1.84, 1.87, 8.09, repro,
2008-01-13,-0.44, 0.54, 5.61, 1.76, 1.72, 7.56, repro,
2008-01-14,-0.26, 0.65, 1.90, 1.78, 1.75, 7.76, repro,
2008-01-15,-0.13, 0.75, 4.27, 1.77, 1.76, 7.72, repro,
2008-01-16,-0.70, 0.72, 12.94, 1.81, 1.79, 7.99, repro,
2008-01-17,-0.20, 0.24, 7.40, 1.84, 1.82, 8.17, repro,
2008-01-18,-0.09, 0.51, 12.28, 1.81, 1.74, 7.87, repro,
2008-01-19,-0.87, 0.18, 3.69, 1.81, 1.79, 7.99, repro,
2008-01-20,0.78, -0.85, -9.30, 1.77, 1.75, 7.77, repro,
2008-01-21,1.02, -0.52, -6.21, 1.78, 1.78, 7.91, repro,
2008-01-22,-0.01, 0.46, -13.06, 1.80, 1.79, 7.96, repro,
2008-01-23,0.48, 1.03, -1.86, 1.78, 1.74, 7.73, repro,
2008-01-24,1.24, 0.03, -7.52, 1.79, 1.74, 7.77, repro,
2008-01-25,0.28, -0.63, -2.54, 1.82, 1.83, 8.04, repro,
2008-01-26,1.19, 0.58, 20.27, 1.80, 1.79, 8.02, repro,
2008-01-27,0.51, -1.36, 7.19, 1.78, 1.78, 7.88, repro,
2008-01-28,0.57, 0.27, 1.12, 1.79, 1.78, 7.95, repro,
2008-01-29,0.32, -0.04, 9.03, 1.95, 1.91, 8.77, repro,
2008-01-30,-0.70, 1.14, 9.80, 1.92, 1.84, 8.41, repro,
2008-01-31,-1.94, -0.15, 14.24, 1.86, 1.93, 8.40, repro,
2008-02-01,0.10, -0.10, 4.57, 1.80, 1.82, 8.01, repro,
2008-02-02,0.56, 0.85, -0.06, 1.79, 1.79, 7.91, repro,
2008-02-03,0.05, 0.79, -1.51, 1.79, 1.74, 7.77, repro,
2008-02-04,-0.45, 0.95, 6.04, 1.75, 1.70, 7.54, repro,
2008-02-05,0.53, 0.26, 15.58, 1.85, 1.76, 8.10, repro,
2008-02-06,-3.34, 3.61, 11.51, 1.87, 1.79, 8.20, repro,
2008-02-07,-0.07, 0.70, 8.16, 1.82, 1.76, 7.76, repro,
2008-02-08,-0.71, -0.02, 3.98, 1.77, 1.73, 7.67, repro,
2008-02-09,0.33, 1.76, 3.94, 1.76, 1.69, 7.50, repro,
2008-02-10,-0.49, 0.56, -3.50, 1.75, 1.68, 7.44, repro,
2008-02-11,-0.26, 0.03, 0.73, 1.76, 1.68, 7.45, repro,
2008-02-12,-2.54, -0.69, 5.86, 1.77, 1.68, 7.46, repro,
2008-02-13,-0.20, 1.60, 14.93, 1.76, 1.69, 7.44, repro,
2008-02-14,-0.42, -1.23, 3.51, 1.76, 1.68, 7.43, repro,
2008-02-15,-0.01, -0.34, 2.01, 1.81, 1.70, 7.69, repro,
2008-02-16,-0.14, -0.18, 5.71, 1.76, 1.69, 7.46, repro,
2008-02-17,-1.92, -1.40, 9.93, 1.80, 1.74, 7.73, repro,
2008-02-18,-1.60, -0.57, 9.05, 1.76, 1.68, 7.43, repro,
2008-02-19,-0.92, 1.16, 1.69, 1.76, 1.69, 7.47, repro,
2008-02-20,-0.59, -0.54, -2.00, 1.76, 1.69, 7.51, repro,
2008-02-21,-2.37, 1.37, -0.93, 1.79, 1.72, 7.64, repro,
2008-02-22,-2.58, -0.74, 19.42, 1.84, 1.76, 7.90, repro,
2008-02-23,0.92, -0.23, 7.67, 2.40, 2.22, 10.02, repro,
2008-02-24,-0.63, 0.87, 0.79, 1.78, 1.70, 7.60, repro,
2008-02-25,-0.05, 1.35, 6.23, 1.78, 1.70, 7.61, repro,
2008-02-26,-2.12, 2.50, 7.08, 1.81, 1.79, 7.92, repro,
2008-02-27,0.48, 0.86, -0.20, 1.71, 1.68, 7.36, repro,
2008-02-28,-0.71, 0.75, 1.83, 1.79, 1.77, 7.59, repro,
2008-02-29,-0.43, 0.21, 2.34, 1.73, 1.68, 7.36, repro,
2008-03-01,-0.09, 1.22, -2.76, 1.76, 1.71, 7.56, repro,
2008-03-02,1.15, 0.95, -0.23, 1.79, 1.76, 7.67, repro,
2008-03-03,-0.89, 1.75, 5.72, 1.72, 1.69, 7.39, repro,
2008-03-04,-1.37, 1.45, 14.85, 1.85, 1.79, 7.86, repro,
2008-03-05,-1.47, 0.46, -1.29, 1.87, 1.84, 8.07, repro,
2008-03-06,0.50, 0.49, 1.34, 1.78, 1.78, 7.61, repro,
2008-03-07,0.58, -0.59, 12.64, 1.82, 1.76, 7.77, repro,
2008-03-08,-0.83, -0.17, 8.02, 1.94, 1.86, 8.31, repro,
2008-03-09,0.90, 0.03, 1.49, 1.73, 1.71, 7.44, repro,
2008-03-10,-0.63, 1.41, 3.37, 1.72, 1.68, 7.36, repro,
2008-03-11,0.26, 1.46, 4.58, 1.76, 1.72, 7.57, repro,
2008-03-12,-0.16, 3.09, 9.70, 1.79, 1.76, 7.69, repro,
2008-03-13,0.13, 2.01, 6.26, 1.81, 1.76, 7.65, repro,
2008-03-14,-0.94, 1.62, 18.71, 1.83, 1.83, 8.02, repro,
2008-03-15,-1.12, 1.37, 12.99, 1.77, 1.76, 7.60, repro,
2008-03-16,-1.03, 2.05, 8.98, 1.77, 1.75, 7.62, repro,
2008-03-17,0.30, 1.21, 2.38, 1.93, 1.92, 8.06, repro,
2008-03-18,-1.44, 2.72, -1.16, 1.81, 1.82, 7.82, repro,
2008-03-19,-3.01, -0.39, 16.52, 1.78, 1.78, 7.66, repro,
2008-03-20,-1.50, 0.28, 4.00, 1.74, 1.72, 7.32, repro,
2008-03-21,-0.43, 2.37, 2.22, 1.77, 1.74, 7.41, repro,
2008-03-22,-0.46, 1.63, 9.98, 1.78, 1.75, 7.48, repro,
2008-03-23,-0.01, 1.66, 1.56, 1.78, 1.75, 7.48, repro,
2008-03-24,-0.13, 2.73, -2.09, 1.78, 1.78, 7.56, repro,
2008-03-25,0.59, 0.51, 1.61, 1.80, 1.76, 7.65, repro,
2008-03-26,-0.67, 1.08, 0.27, 1.78, 1.71, 7.49, repro,
2008-03-27,0.34, 2.02, 5.71, 1.81, 1.78, 7.77, repro,
2008-03-28,-1.07, 2.62, 16.10, 1.81, 1.74, 7.66, repro,
2008-03-29,-1.13, 2.95, -0.66, 1.74, 1.70, 7.28, repro,
2008-03-30,-1.00, 2.48, 9.55, 1.72, 1.69, 7.20, repro,
2008-03-31,-1.23, 3.40, 12.65, 1.72, 1.69, 7.18, repro,
2008-04-01,-0.61, 1.09, 10.95, 1.72, 1.71, 7.22, repro,
2008-04-02,0.65, 1.40, 9.08, 1.78, 1.76, 7.50, repro,
2008-04-03,0.34, 2.70, 7.15, 1.74, 1.69, 7.24, repro,
2008-04-04,-1.47, 3.29, 1.01, 1.76, 1.75, 7.38, repro,
2008-04-05,-3.24, 5.91, 28.76, 1.85, 1.77, 7.78, repro,
2008-04-06,-1.51, 2.54, 5.66, 1.74, 1.70, 7.25, repro,
2008-04-07,-0.02, 3.43, 5.29, 1.72, 1.70, 7.23, repro,
2008-04-08,-0.00, 2.43, 11.00, 1.72, 1.69, 7.24, repro,
2008-04-09,-0.07, 2.27, 8.85, 1.73, 1.67, 7.15, repro,